Cumberland, WI

6:56 AM CDT on March 29, 2017 (GMT -0500)
Cumberland Municipal

Weather History for KUBE - February, 2014

Change the Weather History Date:

Friday, February 14, 2014

  Actual Average (KRPD) Record (KRPD)
Temperature  
Mean Temperature 4 °F -  
Max Temperature 14 °F 26 °F 44 °F (2002)
Min Temperature -5 °F 9 °F -14 °F (2015)
Degree Days  
Heating Degree Days 60    
Moisture  
Dew Point -3 °F    
Average Humidity 70    
Maximum Humidity 85    
Minimum Humidity 53    
Precipitation  
Precipitation 0.00 in - - ()
Sea Level Pressure  
Sea Level Pressure 29.83 in    
Wind  
Wind Speed 10 mph (NW)    
Max Wind Speed 15 mph    
Max Gust Speed 18 mph    
Visibility 10 miles    
Events Snow    
Averages and records for this station are not official NWS values.
T = Trace of Precipitation, MM = Missing Value Source: NWS Daily Summary

Daily Weather History Graph

Daily Weather History Graph

Search for Another Location

Airport or City:

Trip Planner

Search our weather history database for the weather conditions in past years. The results will help you decide how hot, cold, wet, or windy it might be!

Date:

Astronomy

Feb. 14, 2014 Rise Set
Actual Time 7:11 AM CST 5:33 PM CST
Civil Twilight 6:40 AM CST 6:04 PM CST
Nautical Twilight 6:05 AM CST 6:38 PM CST
Astronomical Twilight 5:31 AM CST 7:13 PM CST
Moon 5:40 PM CST (2/14) 6:36 AM CST (2/14)
Length of Visible Light 11h 23m
Length of Day
10h 22m
Full, 100% of the Moon is Illuminated
Feb 14
Full
Feb 14
Full
Feb 22
Last Quarter
Mar 1
New
Mar 8
First Quarter

Hourly Weather History & Observations

Time (CST) Temp. Windchill Dew Point Humidity Pressure Visibility Wind Dir Wind Speed Gust Speed Precip Events Conditions
12:15 AM 12.2 °F -3.1 °F 5.0 °F 73% 29.64 in 10.0 mi NNW 13.8 mph 17.3 mph N/A   Overcast
12:35 AM 12.2 °F -3.7 °F 5.0 °F 73% 29.66 in 10.0 mi NNW 15.0 mph - N/A Snow Light Snow
12:55 AM 10.4 °F -5.4 °F 5.0 °F 79% 29.66 in 10.0 mi NNW 13.8 mph - N/A   Overcast
1:15 AM 10.4 °F -1.5 °F 5.0 °F 79% 29.66 in 10.0 mi NNW 8.1 mph - N/A   Overcast
1:35 AM 10.4 °F -3.3 °F 5.0 °F 79% 29.66 in 10.0 mi NNW 10.4 mph - N/A   Overcast
1:55 AM 10.4 °F -3.3 °F 3.2 °F 73% 29.67 in 10.0 mi North 10.4 mph - N/A Snow Light Snow
2:15 AM 8.6 °F -6.3 °F 3.2 °F 79% 29.68 in 10.0 mi North 11.5 mph - N/A   Overcast
2:35 AM 6.8 °F -7.8 °F 1.4 °F 79% 29.68 in 10.0 mi NNW 10.4 mph 18.4 mph N/A   Scattered Clouds
2:55 AM 5.0 °F -10.8 °F -0.4 °F 78% 29.69 in 10.0 mi NNW 11.5 mph - N/A   Clear
3:15 AM 3.2 °F -12.2 °F -0.4 °F 85% 29.69 in 10.0 mi NNW 10.4 mph - N/A   Clear
3:35 AM 5.0 °F -10.0 °F -0.4 °F 78% 29.69 in 10.0 mi NNW 10.4 mph - N/A   Clear
3:55 AM 3.2 °F -13.1 °F -2.2 °F 78% 29.70 in 10.0 mi NW 11.5 mph - N/A   Clear
4:15 AM 1.4 °F -14.5 °F -4.0 °F 78% 29.71 in 10.0 mi NNW 10.4 mph - N/A   Clear
4:35 AM 1.4 °F -15.3 °F -4.0 °F 78% 29.71 in 10.0 mi NNW 11.5 mph - N/A   Clear
4:55 AM 1.4 °F -13.5 °F -4.0 °F 78% 29.72 in 10.0 mi North 9.2 mph - N/A   Clear
5:15 AM 1.4 °F -14.5 °F -4.0 °F 78% 29.72 in 10.0 mi North 10.4 mph - N/A   Clear
5:35 AM 1.4 °F -15.3 °F -4.0 °F 78% 29.72 in 10.0 mi North 11.5 mph - N/A   Clear
5:55 AM 1.4 °F -13.5 °F -4.0 °F 78% 29.73 in 10.0 mi NNW 9.2 mph - N/A   Clear
6:15 AM -2.2 °F -18.0 °F -5.8 °F 85% 29.74 in 10.0 mi NNW 9.2 mph - N/A   Clear
6:35 AM -0.4 °F -14.7 °F -5.8 °F 78% 29.74 in 10.0 mi North 8.1 mph - N/A   Clear
6:55 AM -0.4 °F -16.7 °F -5.8 °F 78% 29.75 in 10.0 mi North 10.4 mph - N/A   Clear
7:15 AM -0.4 °F -14.7 °F -5.8 °F 78% 29.77 in 10.0 mi North 8.1 mph - N/A   Clear
7:35 AM -0.4 °F -14.7 °F -5.8 °F 78% 29.79 in 10.0 mi North 8.1 mph - N/A   Clear
7:55 AM -0.4 °F -14.7 °F -5.8 °F 78% 29.80 in 10.0 mi North 8.1 mph - N/A   Clear
8:15 AM -0.4 °F -16.7 °F -5.8 °F 78% 29.80 in 10.0 mi North 10.4 mph - N/A   Clear
8:35 AM -0.4 °F -14.7 °F -5.8 °F 78% 29.81 in 10.0 mi North 8.1 mph - N/A   Clear
8:55 AM 1.4 °F -14.5 °F -5.8 °F 72% 29.82 in 10.0 mi North 10.4 mph - N/A   Clear
9:15 AM 1.4 °F -15.3 °F -5.8 °F 72% 29.83 in 10.0 mi North 11.5 mph - N/A   Clear
9:35 AM 3.2 °F -11.3 °F -5.8 °F 66% 29.83 in 10.0 mi North 9.2 mph - N/A   Clear
9:55 AM 3.2 °F -14.6 °F -4.0 °F 72% 29.83 in 10.0 mi North 13.8 mph - N/A   Clear
10:15 AM 3.2 °F -13.9 °F -4.0 °F 72% 29.84 in 10.0 mi North 12.7 mph - N/A   Clear
10:35 AM 5.0 °F -9.1 °F -4.0 °F 66% 29.85 in 10.0 mi NNW 9.2 mph - N/A   Clear
10:55 AM 6.8 °F -5.9 °F -2.2 °F 67% 29.86 in 10.0 mi North 8.1 mph - N/A   Clear
11:15 AM 8.6 °F -4.7 °F -2.2 °F 62% 29.86 in 10.0 mi North 9.2 mph - N/A   Clear
11:35 AM 8.6 °F -4.7 °F -0.4 °F 67% 29.86 in 10.0 mi NW 9.2 mph - N/A   Clear
11:55 AM 8.6 °F -5.5 °F -0.4 °F 67% 29.86 in 10.0 mi NW 10.4 mph - N/A   Clear
12:15 PM 10.4 °F -4.1 °F -0.4 °F 62% 29.85 in 10.0 mi NNW 11.5 mph - N/A   Clear
12:35 PM 12.2 °F -1.8 °F -0.4 °F 57% 29.86 in 10.0 mi NW 11.5 mph - N/A   Clear
12:55 PM 12.2 °F -1.8 °F -0.4 °F 57% 29.86 in 10.0 mi WNW 11.5 mph - N/A   Clear
1:15 PM 12.2 °F -1.0 °F -0.4 °F 57% 29.86 in 10.0 mi WNW 10.4 mph - N/A   Clear
1:35 PM 12.2 °F -1.8 °F -0.4 °F 57% 29.86 in 10.0 mi NW 11.5 mph - N/A   Clear
1:55 PM 14.0 °F -0.2 °F -0.4 °F 53% 29.86 in 10.0 mi NNW 12.7 mph - N/A   Clear
2:15 PM 14.0 °F 1.2 °F -0.4 °F 53% 29.86 in 1.2 mi NW 10.4 mph - N/A   Haze
2:35 PM 14.0 °F 2.0 °F -0.4 °F 53% 29.86 in 10.0 mi NW 9.2 mph - N/A   Clear
2:55 PM 14.0 °F 1.2 °F -0.4 °F 53% 29.87 in 10.0 mi NW 10.4 mph - N/A   Clear
3:15 PM 14.0 °F 0.5 °F -0.4 °F 53% 29.89 in 10.0 mi NW 11.5 mph - N/A   Clear
3:35 PM 14.0 °F 2.0 °F -0.4 °F 53% 29.89 in 10.0 mi WNW 9.2 mph - N/A   Clear
3:55 PM 14.0 °F -0.2 °F -0.4 °F 53% 29.90 in 10.0 mi NW 12.7 mph - N/A   Clear
4:15 PM 14.0 °F 1.2 °F -0.4 °F 53% 29.90 in 10.0 mi NW 10.4 mph - N/A   Clear
4:35 PM 14.0 °F 1.2 °F -0.4 °F 53% 29.91 in 10.0 mi NW 10.4 mph - N/A   Clear
4:55 PM 12.2 °F 0.7 °F -0.4 °F 57% 29.92 in 10.0 mi NW 8.1 mph - N/A   Clear
5:15 PM 12.2 °F 1.7 °F -0.4 °F 57% 29.92 in 10.0 mi NW 6.9 mph - N/A   Clear
5:35 PM 10.4 °F -1.5 °F -2.2 °F 57% 29.93 in 10.0 mi NW 8.1 mph - N/A   Clear
6:25 PM 8.6 °F -2.6 °F -4.0 °F 57% 29.94 in 10.0 mi WNW 6.9 mph - N/A   Clear
6:35 PM 8.6 °F -2.6 °F -4.0 °F 57% 29.95 in 10.0 mi WNW 6.9 mph - N/A   Clear
6:44 PM 6.8 °F -5.9 °F -4.0 °F 61% 29.94 in 10.0 mi WNW 8.1 mph - N/A   Clear
6:55 PM 6.8 °F -4.8 °F -4.0 °F 61% 29.94 in 10.0 mi West 6.9 mph - N/A   Clear
7:15 PM 5.0 °F -4.1 °F -4.0 °F 66% 29.93 in 10.0 mi WNW 4.6 mph - N/A   Clear
7:35 PM 3.2 °F -4.2 °F -5.8 °F 66% 29.93 in 10.0 mi NW 3.5 mph - N/A   Clear
7:55 PM 3.2 °F -6.2 °F -4.0 °F 72% 29.93 in 10.0 mi WNW 4.6 mph - N/A   Clear
8:15 PM 1.4 °F -8.3 °F -5.8 °F 72% 29.92 in 10.0 mi WNW 4.6 mph - N/A   Clear
8:35 PM 1.4 °F -12.5 °F -5.8 °F 72% 29.93 in 10.0 mi West 8.1 mph - N/A   Clear
8:55 PM -0.4 °F -13.4 °F -7.6 °F 72% 29.94 in 10.0 mi WNW 6.9 mph - N/A   Clear
9:15 PM 1.4 °F -9.9 °F -5.8 °F 72% 29.96 in 10.0 mi West 5.8 mph - N/A   Clear
9:30 PM 1.4 °F -8.3 °F -5.8 °F 72% 29.96 in 10.0 mi WNW 4.6 mph - N/A   Clear
9:55 PM 1.4 °F -8.3 °F -5.8 °F 72% 29.96 in 10.0 mi WNW 4.6 mph - N/A   Clear
10:15 PM -4.0 °F - -9.4 °F 78% 29.96 in 10.0 mi Calm Calm - N/A   Clear
10:35 PM -5.8 °F -16.7 °F -9.4 °F 84% 29.96 in 10.0 mi NNW 4.6 mph - N/A   Clear
10:55 PM -4.0 °F - -9.4 °F 78% 29.96 in 10.0 mi Calm Calm - N/A   Clear
11:15 PM -2.2 °F -10.4 °F -7.6 °F 78% 29.96 in 10.0 mi West 3.5 mph - N/A   Clear
11:35 PM -4.0 °F - -7.6 °F 85% 29.96 in 10.0 mi Calm Calm - N/A   Clear
11:55 PM -5.8 °F - -9.4 °F 84% 29.96 in 10.0 mi Calm Calm - N/A   Clear